Regional Weather Roundup
Issued by NWS

Home | Current Version | Previous Version | Text Only | Print | Product List | Glossary On
Versions: 1 2 3 4 5 6 7 8 9 10 11 12 13 14 15 16 17 18 19 20 21 22 23 24 25 26 27 28 29 30 31 32 33 34 35 36 37 38 39 40 41 42 43 44 45 46 47 48 49 50
000
ASUS46 KSEW 291310
RWRWA

WASHINGTON REGIONAL WEATHER ROUNDUP
NATIONAL WEATHER SERVICE SEATTLE WA
600 AM PDT THU SEP 29 2016

NOTE:"FAIR" INDICATES FEW OR NO CLOUDS BELOW 12,000 FEET WITH NO
SIGNIFICANT WEATHER AND/OR OBSTRUCTIONS TO VISIBILITY.

WAZ505-507>509-291400-
SEATTLE, TACOMA, EVERETT, AND VICINITY

CITY           SKY/WX    TMP DP  RH WIND       PRES   REMARKS
EVERETT        PTCLDY    48  45  89 CALM      30.06S
BOEING FIELD   PTCLDY    52  43  71 CALM      30.06S
RENTON         PTCLDY    48  46  93 CALM      30.06R
SEATAC AIRPORT PTCLDY    48  40  73 N7        30.06S
JBLM-MCCHORD   CLEAR     38  38 100 S2        30.06R
PUYALLUP         N/A     41  41 100 CALM      30.06R
BREMERTON      PTCLDY    37  36  93 CALM      30.09F
JBLM-FT LEWIS  CLEAR     40  40  99 SE1       30.05R
TACOMA NARROWS PTCLDY    48  45  89 N3        30.06R
$$

WAZ001-503-506-510-514-515-291400-
NORTH INTERIOR

CITY           SKY/WX    TMP DP  RH WIND       PRES   REMARKS
BELLINGHAM     CLOUDY    49  47  93 CALM      30.05S
FRIDAY HARBOR  PTCLDY    45  42  89 CALM      30.07S
EASTSOUND      PTCLDY    54  50  87 N7        30.05S
PORT ANGELES   MOCLDY    44  37  76 CALM      30.08R
EDIZ HOOK      FAIR      47  41  78 CALM      30.08R
PORT TOWNSEND  NOT AVBL
NAS WHIDBEY    MOCLDY    44  41  89 CALM      30.11R
ARLINGTON      MOCLDY    41  34  75 CALM      30.08S
BURLINGTON     CLOUDY    45  45 100 CALM      30.07R
$$

WAZ020-022-039-040-504-511-512-291400-
SOUTHWEST INTERIOR

CITY           SKY/WX    TMP DP  RH WIND       PRES   REMARKS
SHELTON        FOG       40  38  93 SW3       30.05R VSB 3/4
OLYMPIA        PTCLDY    37  36  96 CALM      30.06S
CHEHALIS       NOT AVBL
KELSO          CLEAR     43  42  97 CALM      30.05R
VANCOUVER      CLEAR     50  45  83 CALM      30.02R
SCAPPOOSE, OR  CLEAR     52  44  74 N8        30.01R
PORTLAND, OR   PTCLDY    54  47  77 CALM      30.03R
$$

WAZ021-516-517-291400-
WASHINGTON COAST

CITY           SKY/WX    TMP DP  RH WIND       PRES   REMARKS
FORKS          CLOUDY    41  38  89 CALM      30.08S
HOQUIAM        MOCLDY    44  40  85 CALM      30.07S
ASTORIA, OR    PTCLDY    46  43  89 SE6       30.06R
$$

WAZ019-023-024-040-518-519-291400-
CASCADE MOUNTAINS AND COLUMBIA GORGE

CITY           SKY/WX    TMP DP  RH WIND       PRES   REMARKS
STAMPEDE PASS  CLOUDY    45  42  89 SW6       30.04S
TROUTDALE, OR  CLEAR     49  47  93 CALM      30.02R
THE DALLES, OR CLEAR     57  49  74 VRB5      29.94R
$$

WAZ026-027-041>044-520-521-291400-
EAST SLOPES

CITY           SKY/WX    TMP DP  RH WIND       PRES   REMARKS
OMAK           CLEAR     52  36  54 N12       29.99S
WENATCHEE      CLEAR     52  41  66 NW3       29.97R
ELLENSBURG     CLEAR     45  40  82 CALM      29.98S
YAKIMA         CLEAR     50  42  74 W8        29.96R
$$

WAZ028-034-035-291400-
COLUMBIA BASIN

CITY           SKY/WX    TMP DP  RH WIND       PRES   REMARKS
EPHRATA        CLEAR     59  35  40 N10       29.94R
MOSES LAKE     CLEAR     48  37  65 CALM      29.95R
PASCO          PTCLDY    49  45  86 CALM      29.94R
HERMISTON, OR  CLEAR     50  42  74 SE3       29.94R
$$

WAZ036>038-291400-
NORTHEAST WASHINGTON

CITY           SKY/WX    TMP DP  RH WIND       PRES   REMARKS
SPOKANE GEIGER MOCLDY    54  42  64 NE3       29.97R
SPOKANE FELTS  PTCLDY    51  47  86 CALM      29.97S
FAIRCHILD AFB  PTCLDY    54  43  67 NE5       29.96S
COEURDALENE,ID PTCLDY    55  45  68 NE12      29.98S
DEER PARK      CLEAR     47  41  80 CALM      29.97S
$$

WAZ029>033-291400-
SOUTHEAST WASHINGTON

CITY           SKY/WX    TMP DP  RH WIND       PRES   REMARKS
PULLMAN        CLOUDY    54  41  61 CALM      29.97S
LEWISTON, ID   MOCLDY    57  43  59 CALM      29.93S
WALLA WALLA    PTCLDY    55  44  66 SE3       29.93R
PENDLETON, OR  CLEAR     52  41  66 SE7       29.94R
$$



USA.gov is the U.S. government's official web portal to all federal, state and local government web resources and services.